Home   Weather   Lanzhou   Past weeks

Flag for China Past Weather in Lanzhou, Gansu, China — Yesterday and Last 2 Weeks

Now
55 °F

Sunny.


Feels Like: 55 °F
Forecast: 41 / 77 °F
Wind: 1 mph from North

Location: Lanzhou / Zhongchuan

Current Time: Oct 1, 2016 at 9:42:14 AM

Latest Report: Oct 1, 2016 at 9:00 AM


Visibility: 10 mi

Pressure: 30.21 "Hg (25.13 "Hg at 1543m altitude)

Humidity: 63%

Dew Point: 43 °F

Location of LanzhouLocation

Past Weather in Lanzhou — Graph

°F

Lanzhou Temperature Yesterday

Maximum temperature yesterday: 70 °F (at 3:00 PM)
Minimum temperature yesterday: 39 °F (at 7:00 AM)
Average temperature yesterday: 54 °F

High & Low Weather Summary for the Past Weeks

 TemperatureHumidityPressure
High77 °F (Sep 25, 4:00 PM)100% (Sep 19, 12:00 AM)30.39 "Hg (Sep 19, 12:00 AM)
Low37 °F (Sep 28, 7:00 AM)22% (Sep 23, 4:00 PM)29.89 "Hg (Sep 25, 4:00 PM)
Average57 °F67%30.18 "Hg
* Reported Sep 16 8:00 AM — Oct 1 8:00 AM, Lanzhou, Weather by CustomWeather, © 2016

Note: Actual official high and low records may vary slightly from our data, if they occured in-between our weather recording intervals... More about our weather records

Advertising

Lanzhou Weather History for the Previous 24 Hours

Scroll right to see more
 ConditionsComfort  
Time TempWeatherWind HumidityBarometerVisibility
8:00 AM
Sat, Oct 1
46 °FSunny.1 mph82%30.18 "Hg10 mi
7:00 AM43 °FClear.1 mph87%30.18 "Hg10 mi
6:00 AM43 °FClear.6 mph93%30.18 "Hg10 mi
5:00 AM46 °FClear.3 mph82%30.18 "Hg10 mi
4:00 AM45 °FClear.6 mph87%30.18 "Hg10 mi
3:00 AM43 °FClear.3 mph87%30.18 "Hg10 mi
2:00 AM45 °FClear.3 mph87%30.18 "Hg10 mi
1:00 AM46 °FClear.1 mph87%30.18 "Hg10 mi
12:00 AM50 °FClear.3 mph76%30.18 "Hg10 mi
11:00 PM
Fri, Sep 30
52 °FClear.6 mph77%30.18 "Hg10 mi
10:00 PM55 °FClear.6 mph72%30.18 "Hg10 mi
9:00 PM57 °FClear.3 mph72%30.15 "Hg10 mi
8:00 PM61 °FClear.1 mph68%30.12 "Hg10 mi
7:00 PM61 °FSunny.1 mph68%30.09 "Hg10 mi
6:00 PM66 °FSunny.1 mph52%30.07 "Hg10 mi
5:00 PM68 °FSunny.1 mph40%30.07 "Hg10 mi
4:00 PM70 °FSunny.1 mph40%30.04 "Hg10 mi
3:00 PM70 °FSunny.1 mph43%30.04 "Hg10 mi
2:00 PM68 °FSunny.3 mph43%30.07 "Hg10 mi
1:00 PM64 °FPassing clouds.6 mph49%30.07 "HgN/A
12:00 PM61 °FPassing clouds.6 mph55%30.09 "HgN/A
11:00 AM59 °FPassing clouds.8 mph55%30.12 "HgN/A
10:00 AM57 °FPassing clouds.6 mph63%30.12 "HgN/A
9:00 AM52 °FSunny.1 mph77%30.12 "Hg10 mi
Weather by CustomWeather, © 2016

See weather overviewHow to use our weather pages